EW1476 Weather Reports


Display with metric or nautical units.
time (UTC)temp
F
wind
direction
speed
MPH
gust
MPH
rain 1hr
in
rain 24hr
in
rain mn
in
humidity
%
barometer
mb
20260505071519 60 157 0.0 0.0 0.00 0.00 0.00 64 1011.0
20260505070018 60 156 0.0 1.0 0.00 0.00 0.00 65 1011.0
20260505064514 60 148 0.0 1.0 0.00 0.00 0.00 65 1011.1
20260505063010 60 207 0.0 0.0 0.00 0.00 0.00 65 1011.2
20260505061537 60 207 0.0 0.0 0.00 0.00 0.00 65 1011.3
20260505060027 61 207 0.0 0.0 0.00 0.00 0.00 64 1011.2
20260505054524 61 207 0.0 0.0 0.00 0.00 0.00 63 1011.2
20260505053022 61 207 0.0 0.0 0.00 0.00 0.00 62 1011.3
20260505051516 62 207 0.0 1.0 0.00 0.00 0.00 61 1011.3
20260505041506 62 217 0.0 1.0 0.00 0.00 0.00 58 1011.2
20260505040006 62 194 0.0 0.0 0.00 0.00 0.00 57 1011.2
20260505034520 63 208 0.0 0.0 0.00 0.00 0.00 55 1011.1
20260505033019 63 213 0.0 0.0 0.00 0.00 0.00 54 1011.2
20260505031514 64 219 0.0 0.0 0.00 0.00 0.00 53 1011.3
20260505030012 64 220 0.0 0.0 0.00 0.00 0.00 52 1011.2
20260505024517 64 213 0.0 0.0 0.00 0.00 0.00 52 1011.2
20260505023022 65 213 0.0 0.0 0.00 0.00 0.00 51 1011.2
20260505021524 66 214 0.0 0.0 0.00 0.00 0.00 50 1011.1
20260505020021 66 214 0.0 0.0 0.00 0.00 0.00 48 1011.0
20260505014515 67 214 0.0 0.0 0.00 0.00 0.00 47 1011.0
20260505013021 67 213 0.0 1.0 0.00 0.00 0.00 47 1010.7
20260505011508 68 205 0.0 1.0 0.00 0.00 0.00 45 1010.6
20260505010024 68 201 0.0 1.0 0.00 0.00 0.00 45 1010.3
20260505004526 68 208 0.0 2.0 0.00 0.00 0.00 45 1010.2
20260505003020 69 211 0.0 2.0 0.00 0.00 0.00 43 1010.2
20260505001518 69 219 0.0 2.0 0.00 0.00 0.00 44 1010.2
20260505000027 69 201 0.0 2.0 0.00 0.00 0.00 42 1010.2
20260504234509 70 207 0.0 1.0 0.00 0.00 0.00 41 1010.1
20260504233025 71 220 1.0 3.0 0.00 0.00 0.00 39 1010.0
20260504231531 71 207 0.0 2.0 0.00 0.00 0.00 38 1010.0
20260504230024 72 205 0.0 3.0 0.00 0.00 0.00 39 1010.1
20260504224522 72 191 0.0 1.0 0.00 0.00 0.00 40 1010.0
20260504223015 73 228 0.0 4.0 0.00 0.00 0.00 37 1010.0
20260504221530 72 203 1.0 3.0 0.00 0.00 0.00 36 1009.8
20260504220017 72 208 0.0 2.0 0.00 0.00 0.00 38 1009.9
20260504214509 73 217 1.0 2.0 0.00 0.00 0.00 38 1009.8
20260504213009 73 241 1.0 2.0 0.00 0.00 0.00 34 1010.0
20260504211503 73 191 0.0 4.0 0.00 0.00 0.00 37 1010.0
20260504210004 73 235 1.0 3.0 0.00 0.00 0.00 35 1010.1
20260504204503 72 170 1.0 2.0 0.00 0.00 0.00 36 1010.0
20260504203020 73 209 1.0 3.0 0.00 0.00 0.00 35 1010.1
20260504201508 71 207 0.0 3.0 0.00 0.00 0.00 36 1010.3
20260504200004 72 103 0.0 4.0 0.00 0.00 0.00 36 1010.6
20260504194503 72 147 1.0 4.0 0.00 0.00 0.00 40 1010.8
20260504193009 72 210 1.0 5.0 0.00 0.00 0.00 40 1011.0
20260504191503 72 226 1.0 3.0 0.00 0.00 0.00 37 1011.3
20260504190014 71 245 1.0 4.0 0.00 0.00 0.00 37 1011.5
20260504184512 70 300 2.0 4.0 0.00 0.00 0.00 38 1011.8
20260504183008 70 135 1.0 4.0 0.00 0.00 0.00 37 1011.9
20260504181503 70 238 1.0 2.0 0.00 0.00 0.00 37 1012.3
20260504180009 70 187 1.0 3.0 0.00 0.00 0.00 37 1012.5
20260504174520 69 155 0.0 4.0 0.00 0.00 0.00 39 1012.7
20260504173020 69 238 0.0 3.0 0.00 0.00 0.00 37 1012.8
20260504171512 68 165 1.0 4.0 0.00 0.00 0.00 38 1012.9
20260504081512 45 212 0.0 0.0 0.00 0.00 0.00 73 1015.5